Regional Weather Roundup
Issued by NWS Little Rock, AR

Home | Current Version | Previous Version | Graphics & Text | Print | Product List | Glossary On
Versions: 1 2 3 4 5 6 7 8 9 10 11 12 13 14 15 16 17 18 19 20 21 22 23 24 25 26 27 28 29 30 31 32 33 34 35 36 37 38 39 40 41 42 43 44 45 46
000
ASUS44 KLZK 040405
RWRLZK

WEATHER ROUNDUP FOR ARKANSAS
NATIONAL WEATHER SERVICE LITTLE ROCK AR
1100 PM CDT FRI JUL 03 2015

NOTE: "FAIR" INDICATES FEW OR NO CLOUDS BELOW 12,000 FEET WITH NO
SIGNIFICANT WEATHER AND/OR OBSTRUCTIONS TO VISIBILITY.

ARZ001-003-010-029-040500-
NORTHWEST ARKANSAS

CITY           SKY/WX    TMP DP  RH WIND       PRES   REMARKS
FAYETTEVILLE   FOG       66  66 100 CALM      29.96R VSB 1
FORT SMITH     MOCLDY    73  69  87 CALM      29.94R
HARRISON       FOG       68  68 100 CALM      29.96R VSB 1/4
BENTONVILLE    CLEAR     72  66  83 CALM      29.97R
ROGERS         PTCLDY    70  68  93 CALM      29.97R
SILOAM SPGS    CLEAR     70  63  78 CALM        N/A
HIGHFILL       CLEAR     70  68  93 NE3       29.96R
$$

ARZ004-005-016-040500-
NORTH CENTRAL ARKANSAS

CITY           SKY/WX    TMP DP  RH WIND       PRES   REMARKS
BATESVILLE     CLOUDY    70  68  94 CALM      29.93R
FLIPPIN        CLEAR     70  66  88 CALM      29.92R
MTN HOME       CLEAR     68  67  96 CALM      29.93R
$$

ARZ040-041-040500-
WEST CENTRAL ARKANSAS

CITY           SKY/WX    TMP DP  RH WIND       PRES   REMARKS
MENA           MOCLDY    72  72 100 CALM      29.97R
MOUNT IDA      CLOUDY    76  73  91 CALM      29.93R
$$

ARZ009-017-025-026-028-040500-
NORTHEAST ARKANSAS

CITY           SKY/WX    TMP DP  RH WIND       PRES   REMARKS
JONESBORO      CLOUDY    72  72 100 CALM      29.91R
NEWPORT        CLOUDY    73  71  93 CALM      29.94R
WALNUT RIDGE   PTCLDY    73  72  94 SE3       29.91R
BLYTHEVILLE    MOCLDY    76  73  91 CALM      29.91R
$$

ARZ022-023-033-042-044-040500-
CENTRAL ARKANSAS

CITY           SKY/WX    TMP DP  RH WIND       PRES   REMARKS
LITTLE ROCK    TSTM      72  66  83 W9        29.94S
N LITTLE ROCK  CLOUDY    69  69  98 SW5       29.95R
JACKSONVILLE   LGT RAIN  71  70  97 W14       29.93R FOG
SEARCY         CLOUDY    73  72  96 S6        29.92S
HOT SPRINGS    LGT RAIN  74  66  76 E8        29.95R
RUSSELLVILLE   CLOUDY    71  69  93 CALM      29.93S
CLINTON        FAIR      70  70 100 CALM      29.93S FOG
$$

ARZ036-040500-
EAST ARKANSAS

CITY           SKY/WX    TMP DP  RH WIND       PRES   REMARKS
WEST MEMPHIS   CLOUDY    72  71  97 VRB5      29.92R
$$

ARZ050-053-066-070-073-040500-
SOUTHWEST ARKANSAS

CITY           SKY/WX    TMP DP  RH WIND       PRES   REMARKS
ARKADELPHIA    FAIR      77  77 100 CALM      29.94R FOG
CAMDEN         MOCLDY    77  73  88 CALM      29.95S FOG
TEXARKANA      MOCLDY    78  76  93 S6        29.94R
EL DORADO      MOCLDY    78  76  93 CALM      29.96R
DE QUEEN       CLOUDY    76  74  93 CALM      29.92R THUNDER
$$

ARZ056-057-069-040500-
SOUTHEAST ARKANSAS

CITY           SKY/WX    TMP DP  RH WIND       PRES   REMARKS
PINE BLUFF     MOCLDY    74  73  97 SW5       29.94R
STUTTGART      CLOUDY    73  72  94 S12       29.90S
MONTICELLO     PTCLDY    75  75 100 SW6       29.95R

$$




USA.gov is the U.S. government's official web portal to all federal, state and local government web resources and services.